Location: Marcé
(47.5801°N, 0.3280°W)
Time: 13:00:43
(UTC+01:00)

N. Korean satellite - Visible Passes

Search period start: 29 November 2022 00:00
Search period end: 09 December 2022 00:00
Orbit: 421 x 454 km, 97.3° (Epoch: 28 November)

Date Brightness Start Highest point End Pass type
(mag) Time Alt. Az. Time Alt. Az. Time Alt. Az.
29 Nov 7.2 06:11:08 10° NNE 06:14:29 52° E 06:17:49 10° S visible
29 Nov 8.3 07:45:05 10° NW 07:46:35 12° WNW 07:48:05 10° W visible
29 Nov 9.4 18:16:43 10° SW 18:19:18 20° W 18:21:54 10° NW visible
30 Nov 9.3 05:33:10 10° NE 05:35:35 18° E 05:38:00 10° SE visible
30 Nov 7.1 07:05:07 10° N 07:08:12 31° WNW 07:11:14 10° SW visible
01 Dec 6.4 06:26:08 10° NNE 06:29:34 84° ESE 06:32:57 10° SSW visible
01 Dec 9.7 18:32:35 10° SW 18:34:26 14° W 18:36:17 10° WNW visible
02 Dec 8.6 05:47:44 10° NE 05:50:41 26° E 05:53:36 10° SSE visible
02 Dec 7.6 07:20:24 10° NNW 07:23:05 21° WNW 07:25:43 10° WSW visible
02 Dec 8.1 17:52:12 10° S 17:55:23 39° W 17:58:37 10° NNW visible
03 Dec 6.3 06:41:04 10° N 06:44:27 62° WNW 06:47:48 10° SSW visible
04 Dec 7.8 06:02:20 10° NNE 06:05:35 39° E 06:08:47 10° S visible
04 Dec 8.1 07:35:44 10° NNW 07:37:47 15° WNW 07:39:50 10° W visible
04 Dec 8.9 18:07:22 10° SSW 18:10:16 26° W 18:13:12 10° NW visible
05 Dec 9.6 05:24:35 10° ENE 05:26:28 14° E 05:28:20 10° SE visible
05 Dec 6.8 06:55:57 10° N 06:59:10 40° WNW 07:02:21 10° SW visible
06 Dec 6.8 06:16:55 10° NNE 06:20:19 62° ESE 06:23:39 10° S visible
06 Dec 8.4 07:51:28 10° NW 07:52:19 11° WNW 07:53:11 10° WNW visible
06 Dec 9.6 18:22:38 10° SW 18:25:01 18° W 18:27:26 10° NW visible
07 Dec 9.1 05:38:36 10° NE 05:41:12 20° E 05:43:46 10° SE visible
07 Dec 7.3 07:10:48 10° N 07:13:43 27° WNW 07:16:36 10° SW visible
07 Dec 7.4 17:42:33 10° S 17:45:51 53° W 17:49:14 10° NNW visible
08 Dec 6.2 06:31:27 10° NNE 06:34:52 84° WNW 06:38:13 10° SSW visible
08 Dec 9.8 18:38:10 10° WSW 18:39:39 12° W 18:41:09 10° WNW visible
